Location: Observatoire de l'Aigle
(47.0607°N, 71.3152°W)
Time: 16:30:18
(UTC-04:00)

Amateur Radio Satellites - All Passes

Search period start: 28 July 2014 16:00
Search period end: 29 July 2014 16:00
Location: Observatoire de l'Aigle, 47.0607°N, 71.3152°W

Satellite Date Start Highest point End Downlink Frequencies (MHz)
Time Altitude Azimuth
OPAL 28 Jul 16:05:59 16:10:04 24° 96° (E) 16:14:10 ?
Gurwin Techsat 1B 28 Jul 16:07:45 16:11:26 19° 270° (W) 16:15:09 435.225 FM
UOSAT-12 28 Jul 16:12:56 16:17:11 35° 319° (NW) 16:21:32 437.025 FM, 437.400 FM
Saudisat 1A 28 Jul 16:19:53 16:24:20 87° 234° (SW) 16:28:44 436.775 MHz
JAS-2 28 Jul 16:24:43 16:30:25 24° 56° (ENE) 16:35:48 435.800 - 435.900 CW/SSB, 435.910 FM
Hamsat 28 Jul 16:32:08 16:34:22 14° 60° (ENE) 16:36:36 145.90 MHz
AO-7 28 Jul 16:44:21 16:52:31 56° 258° (WSW) 17:00:45 29.400 - 29.500 MHz
KITSAT 1 28 Jul 16:53:25 17:00:08 30° 253° (WSW) 17:06:49 435.175 FM
Uosat F 28 Jul 16:58:28 17:02:55 31° 264° (W) 17:07:23 435.120 FM
OPAL 28 Jul 17:44:19 17:49:12 50° 293° (WNW) 17:54:08 ?
UOSAT-12 28 Jul 17:56:52 17:58:45 12° 342° (NNW) 18:00:38 437.025 FM, 437.400 FM
Saudisat 1A 28 Jul 18:01:43 18:03:12 12° 252° (WSW) 18:04:41 436.775 MHz
Hamsat 28 Jul 18:05:40 18:09:49 68° 258° (WSW) 18:14:02 145.90 MHz
JAS-2 28 Jul 18:06:52 18:14:41 90° 254° (WSW) 18:21:58 435.800 - 435.900 CW/SSB, 435.910 FM
RS-15 28 Jul 18:07:20 18:16:43 31° 355° (N) 18:26:12 29.354 - 29.394 USB, Beacon 29.352 USB
HO-68 28 Jul 18:13:05 18:14:48 11° 40° (NE) 18:16:32 435.675 MHz FM
STRAND 1 28 Jul 18:28:40 18:32:06 18° 90° (E) 18:35:31 ?
AO-7 28 Jul 18:45:50 18:47:14 10° 279° (W) 18:48:38 29.400 - 29.500 MHz
SO-67 28 Jul 18:52:35 18:56:00 63° 75° (ENE) 18:59:28 435.3500 MHz FM
SO-50 28 Jul 19:16:39 19:19:52 18° 30° (NNE) 19:23:08 436.795 FM
HO-68 28 Jul 19:54:04 20:00:43 43° 62° (ENE) 20:07:23 435.675 MHz FM
JAS-2 28 Jul 19:54:57 20:00:27 21° 272° (W) 20:05:45 435.800 - 435.900 CW/SSB, 435.910 FM
STRAND 1 28 Jul 20:06:42 20:11:47 66° 288° (WNW) 20:16:49 ?
UKube-1 28 Jul 20:18:57 20:22:44 30° 66° (ENE) 20:26:33 145.840 MHz, 145.915 MHz
RS-15 28 Jul 20:22:29 20:32:45 42° 29° (NNE) 20:43:14 29.354 - 29.394 USB, Beacon 29.352 USB
SO-50 28 Jul 20:56:31 21:01:16 71° 51° (NE) 21:06:04 436.795 FM
Oscar 11 28 Jul 21:04:14 21:08:16 41° 70° (ENE) 21:12:19 145.825 FM, Beacon 2401.500 USB
MaSat-1 28 Jul 21:06:54 21:10:42 36° 109° (ESE) 21:15:04 437.345 MHz
UOSAT-12 28 Jul 21:19:39 21:23:08 20° 31° (NNE) 21:26:37 437.025 FM, 437.400 FM
FUNcube-1 28 Jul 21:25:14 21:28:50 27° 66° (ENE) 21:32:24 145.950 - 145.970 MHz USB
HO-68 28 Jul 21:41:37 21:48:24 44° 261° (W) 21:55:14 435.675 MHz FM
STRAND 1 28 Jul 21:48:31 21:50:01 11° 308° (NW) 21:51:30 ?
UKube-1 28 Jul 21:55:00 21:58:54 31° 263° (W) 22:02:49 145.840 MHz, 145.915 MHz
RS-15 28 Jul 22:35:17 22:46:19 83° 237° (WSW) 22:57:44 29.354 - 29.394 USB, Beacon 29.352 USB
SO-50 28 Jul 22:38:08 22:41:21 18° 249° (WSW) 22:44:35 436.795 FM
Oscar 11 28 Jul 22:41:19 22:44:38 21° 267° (W) 22:47:58 145.825 FM, Beacon 2401.500 USB
MaSat-1 28 Jul 22:44:10 22:48:05 32° 312° (NW) 22:52:31 437.345 MHz
ISS 28 Jul 22:57:50 22:59:10 12° 133° (SE) 23:00:32 145.800 FM
UOSAT-12 28 Jul 22:59:14 23:04:01 83° 52° (NE) 23:08:43 437.025 FM, 437.400 FM
FUNcube-1 28 Jul 23:01:16 23:05:09 33° 263° (W) 23:09:00 145.950 - 145.970 MHz USB
PCSat 28 Jul 23:39:38 23:42:31 15° 104° (ESE) 23:45:25 145.825 MHz
ISS 29 Jul 00:32:02 00:35:21 67° 150° (SSE) 00:38:42 145.800 FM
UOSAT-12 29 Jul 00:40:55 00:43:31 15° 251° (WSW) 00:46:07 437.025 FM, 437.400 FM
Sapphire 29 Jul 00:46:37 00:51:46 47° 115° (ESE) 00:56:58 437.095 MHz 1200 baud AX-25 AFSK
RS-15 29 Jul 00:49:06 00:57:01 23° 259° (W) 01:05:10 29.354 - 29.394 USB, Beacon 29.352 USB
AO-40 29 Jul 01:07:13 04:07:09 22° 134° (SE) 05:28:20 Beacon 2401.320
Oscar 19 29 Jul 01:10:23 01:13:28 16° 89° (E) 01:16:32 437.125 CW, 437.150 USB
PCSat 29 Jul 01:19:43 01:25:09 89° 122° (ESE) 01:30:37 145.825 MHz
AO-Echo 29 Jul 01:29:46 01:30:53 11° 84° (E) 01:31:59 ?
JAS-1B 29 Jul 01:35:35 01:40:51 16° 78° (ENE) 01:45:43 435.800 - 435.900 CW/SSB
Oscar 16 29 Jul 01:37:46 01:42:13 28° 94° (E) 01:46:38 437.025 USB, Beacon 2401.1428
OPAL 29 Jul 01:49:58 01:50:40 10° 49° (NE) 01:51:22 ?
ITAMSAT 1 29 Jul 01:58:50 02:02:37 20° 91° (E) 02:06:22 435.822 SSB
ISS 29 Jul 02:09:01 02:12:14 41° 350° (N) 02:15:27 145.800 FM
AO-27 29 Jul 02:17:31 02:22:02 30° 95° (E) 02:26:32 436.795 MHz FM
Uribyol 2 29 Jul 02:17:47 02:22:21 31° 95° (E) 02:26:52 436.500 FM
Sapphire 29 Jul 02:30:27 02:35:22 34° 316° (NW) 02:40:19 437.095 MHz 1200 baud AX-25 AFSK
Gurwin Techsat 1B 29 Jul 02:39:39 02:43:37 21° 91° (E) 02:47:34 435.225 FM
Oscar 19 29 Jul 02:48:13 02:53:24 76° 287° (WNW) 02:58:34 437.125 CW, 437.150 USB
PCSat 29 Jul 03:05:08 03:09:18 22° 324° (NW) 03:13:30 145.825 MHz
AO-Echo 29 Jul 03:05:24 03:10:33 81° 103° (ESE) 03:15:29 ?
Oscar 16 29 Jul 03:16:51 03:21:42 43° 292° (WNW) 03:26:33 437.025 USB, Beacon 2401.1428
OPAL 29 Jul 03:23:43 03:28:34 60° 68° (ENE) 03:33:27 ?
JAS-1B 29 Jul 03:23:48 03:33:23 69° 101° (E) 03:41:34 435.800 - 435.900 CW/SSB
ITAMSAT 1 29 Jul 03:37:25 03:42:32 60° 289° (WNW) 03:47:36 435.822 SSB
ISS 29 Jul 03:46:11 03:49:24 40° 10° (N) 03:52:37 145.800 FM
Oscar 10/S400 29 Jul 03:50:51 04:55:32 45° 215° (SW) 10:51:10 145.825 - 145.975 CW/USB, Beacon 145.810 USB
TMSAT-1 29 Jul 03:54:17 03:59:34 67° 102° (ESE) 04:04:49 436.925 FM
AO-27 29 Jul 03:56:49 04:01:41 41° 293° (WNW) 04:06:30 436.795 MHz FM
Uribyol 2 29 Jul 03:57:07 04:01:55 39° 294° (WNW) 04:06:40 436.500 FM
Sapphire 29 Jul 04:18:34 04:20:31 12° 340° (NNW) 04:22:29 437.095 MHz 1200 baud AX-25 AFSK
Gurwin Techsat 1B 29 Jul 04:18:45 04:24:00 60° 289° (WNW) 04:29:12 435.225 FM
Oscar 19 29 Jul 04:29:37 04:31:54 13° 306° (NW) 04:34:11 437.125 CW, 437.150 USB
AO-7 29 Jul 04:42:18 04:50:11 44° 99° (E) 04:57:59 29.400 - 29.500 MHz
AO-Echo 29 Jul 04:45:31 04:48:39 17° 303° (WNW) 04:51:43 ?
Uosat F 29 Jul 05:02:17 05:07:18 65° 102° (ESE) 05:12:16 435.120 FM
OPAL 29 Jul 05:04:22 05:07:52 19° 267° (W) 05:11:23 ?
JAS-1B 29 Jul 05:14:45 05:23:12 37° 304° (NW) 05:30:45 435.800 - 435.900 CW/SSB
ITAMSAT 1 29 Jul 05:20:07 05:20:59 10° 309° (NW) 05:21:51 435.822 SSB
MaSat-1 29 Jul 05:21:53 05:26:29 29° 47° (NE) 05:30:59 437.345 MHz
ISS 29 Jul 05:22:56 05:26:17 69° 209° (SSW) 05:29:38 145.800 FM
KITSAT 1 29 Jul 05:29:42 05:36:35 32° 108° (ESE) 05:43:28 435.175 FM
TMSAT-1 29 Jul 05:35:10 05:39:00 21° 301° (WNW) 05:42:50 436.925 FM
STRAND 1 29 Jul 05:47:08 05:51:48 36° 66° (ENE) 05:56:28 ?
Hamsat 29 Jul 05:49:11 05:52:09 18° 91° (E) 05:55:06 145.90 MHz
Gurwin Techsat 1B 29 Jul 06:01:47 06:02:54 11° 309° (NW) 06:04:00 435.225 FM
Saudisat 1A 29 Jul 06:32:21 06:33:42 11° 108° (ESE) 06:35:04 436.775 MHz
AO-7 29 Jul 06:35:09 06:43:06 51° 300° (WNW) 06:50:59 29.400 - 29.500 MHz
PCSat 29 Jul 06:39:54 06:41:09 11° 17° (NNE) 06:42:25 145.825 MHz
Uosat F 29 Jul 06:42:03 06:45:37 20° 301° (WNW) 06:49:11 435.120 FM
MaSat-1 29 Jul 06:58:58 07:04:11 57° 247° (WSW) 07:09:10 437.345 MHz
JAS-2 29 Jul 06:59:32 07:05:35 62° 100° (E) 07:10:57 435.800 - 435.900 CW/SSB, 435.910 FM
ISS 29 Jul 07:01:01 07:02:29 12° 227° (SW) 07:03:56 145.800 FM
JAS-1B 29 Jul 07:07:38 07:10:47 12° 328° (NNW) 07:13:52 435.800 - 435.900 CW/SSB
KITSAT 1 29 Jul 07:23:20 07:31:25 70° 309° (NW) 07:39:32 435.175 FM
Hamsat 29 Jul 07:24:14 07:28:24 50° 288° (WNW) 07:32:34 145.90 MHz
STRAND 1 29 Jul 07:26:21 07:31:00 34° 264° (W) 07:35:40 ?
SO-67 29 Jul 07:46:33 07:49:57 49° 99° (E) 07:53:20 435.3500 MHz FM
Sapphire 29 Jul 07:48:39 07:52:30 19° 33° (NNE) 07:56:19 437.095 MHz 1200 baud AX-25 AFSK
Saudisat 1A 29 Jul 08:08:08 08:12:34 85° 127° (SE) 08:17:01 436.775 MHz
PCSat 29 Jul 08:21:46 08:26:29 29° 41° (NE) 08:31:11 145.825 MHz
AO-7 29 Jul 08:29:44 08:33:59 15° 323° (NW) 08:38:14 29.400 - 29.500 MHz
JAS-2 29 Jul 08:45:22 08:50:07 24° 303° (WNW) 08:54:30 435.800 - 435.900 CW/SSB, 435.910 FM
HO-68 29 Jul 09:05:43 09:12:00 32° 95° (E) 09:18:14 435.675 MHz FM
SO-67 29 Jul 09:20:58 09:22:38 13° 297° (WNW) 09:24:18 435.3500 MHz FM
KITSAT 1 29 Jul 09:21:41 09:28:21 27° 334° (NNW) 09:35:03 435.175 FM
Sapphire 29 Jul 09:31:25 09:36:52 74° 55° (NE) 09:42:17 437.095 MHz 1200 baud AX-25 AFSK
UKube-1 29 Jul 09:39:54 09:43:54 34° 97° (E) 09:47:51 145.840 MHz, 145.915 MHz
Saudisat 1A 29 Jul 09:49:26 09:52:44 20° 327° (NNW) 09:56:02 436.775 MHz
PCSat 29 Jul 10:04:56 10:10:17 60° 242° (WSW) 10:15:36 145.825 MHz
Oscar 11 29 Jul 10:24:37 10:28:53 55° 100° (E) 10:33:09 145.825 FM, Beacon 2401.500 USB
FUNcube-1 29 Jul 10:46:56 10:50:48 35° 97° (E) 10:54:40 145.950 - 145.970 MHz USB
HO-68 29 Jul 10:53:05 11:00:04 58° 294° (WNW) 11:07:00 435.675 MHz FM
Sapphire 29 Jul 11:15:59 11:19:42 19° 254° (WSW) 11:23:24 437.095 MHz 1200 baud AX-25 AFSK
UKube-1 29 Jul 11:16:19 11:20:00 27° 295° (WNW) 11:23:39 145.840 MHz, 145.915 MHz
KITSAT 1 29 Jul 11:21:18 11:26:56 20° 4° (N) 11:32:34 435.175 FM
Oscar 11 29 Jul 12:01:46 12:04:42 18° 298° (WNW) 12:07:37 145.825 FM, Beacon 2401.500 USB
Uribyol 2 29 Jul 12:03:49 12:05:09 11° 52° (NE) 12:06:28 436.500 FM
AO-27 29 Jul 12:03:59 12:05:07 11° 51° (NE) 12:06:15 436.795 MHz FM
JAS-1B 29 Jul 12:22:19 12:29:16 24° 47° (NE) 12:36:28 435.800 - 435.900 CW/SSB
FUNcube-1 29 Jul 12:23:42 12:27:04 24° 295° (WNW) 12:30:26 145.950 - 145.970 MHz USB
Oscar 19 29 Jul 12:29:49 12:34:16 31° 64° (ENE) 12:38:45 437.125 CW, 437.150 USB
HO-68 29 Jul 12:42:45 12:46:20 15° 316° (NW) 12:49:55 435.675 MHz FM
AO-Echo 29 Jul 12:43:48 12:47:52 23° 61° (ENE) 12:51:55 ?
SO-50 29 Jul 12:54:29 12:58:57 75° 125° (SE) 13:03:32 436.795 FM
Oscar 16 29 Jul 12:57:37 13:02:36 55° 70° (ENE) 13:07:37 437.025 USB, Beacon 2401.1428
RS-15 29 Jul 13:02:22 13:12:45 48° 112° (ESE) 13:22:56 29.354 - 29.394 USB, Beacon 29.352 USB
UOSAT-12 29 Jul 13:16:25 13:18:03 12° 107° (ESE) 13:19:41 437.025 FM, 437.400 FM
KITSAT 1 29 Jul 13:17:58 13:25:12 34° 33° (NNE) 13:32:22 435.175 FM
ITAMSAT 1 29 Jul 13:19:28 13:24:20 42° 67° (ENE) 13:29:13 435.822 SSB
AO-27 29 Jul 13:38:28 13:43:36 61° 71° (ENE) 13:48:46 436.795 MHz FM
Uribyol 2 29 Jul 13:38:30 13:43:38 63° 71° (ENE) 13:48:46 436.500 FM
TMSAT-1 29 Jul 13:40:03 13:44:03 22° 60° (ENE) 13:48:03 436.925 FM
AO-7 29 Jul 13:55:09 14:01:02 22° 45° (NE) 14:06:55 29.400 - 29.500 MHz
Gurwin Techsat 1B 29 Jul 14:03:26 14:08:26 44° 68° (ENE) 14:13:27 435.225 FM
Oscar 19 29 Jul 14:08:46 14:13:31 39° 263° (W) 14:18:19 437.125 CW, 437.150 USB
JAS-1B 29 Jul 14:09:03 14:18:05 73° 69° (ENE) 14:27:59 435.800 - 435.900 CW/SSB
AO-Echo 29 Jul 14:20:57 14:26:12 61° 259° (W) 14:31:29 ?
SO-50 29 Jul 14:36:27 14:40:01 22° 326° (NW) 14:43:40 436.795 FM
Oscar 16 29 Jul 14:38:26 14:42:18 22° 268° (W) 14:46:12 437.025 USB, Beacon 2401.1428
Uosat F 29 Jul 14:41:50 14:45:20 19° 59° (ENE) 14:48:50 435.120 FM
UOSAT-12 29 Jul 14:52:47 14:57:24 83° 126° (SE) 15:02:09 437.025 FM, 437.400 FM
Saudisat 1A 29 Jul 14:53:03 14:56:54 28° 39° (NE) 15:00:43 436.775 MHz
ITAMSAT 1 29 Jul 14:59:25 15:03:57 30° 265° (W) 15:08:30 435.822 SSB
KITSAT 1 29 Jul 15:13:24 15:21:32 84° 237° (WSW) 15:29:36 435.175 FM
RS-15 29 Jul 15:13:57 15:24:51 61° 317° (NW) 15:35:43 29.354 - 29.394 USB, Beacon 29.352 USB
TMSAT-1 29 Jul 15:18:18 15:23:32 62° 259° (WSW) 15:28:49 436.925 FM
AO-27 29 Jul 15:19:44 15:23:32 20° 269° (W) 15:27:21 436.795 MHz FM
Uribyol 2 29 Jul 15:19:52 15:23:33 19° 269° (W) 15:27:14 436.500 FM
OPAL 29 Jul 15:32:48 15:34:26 11° 89° (E) 15:36:05 ?
JAS-2 29 Jul 15:34:41 15:36:31 11° 46° (NE) 15:38:19 435.800 - 435.900 CW/SSB, 435.910 FM
Gurwin Techsat 1B 29 Jul 15:43:59 15:48:33 29° 266° (W) 15:53:09 435.225 FM
